Home   Weather   Trinidad   Past weeks
Flag for Cuba

Past Weather in Trinidad, Cuba — Yesterday and Last 2 Weeks

Now
68 °F

Mild.


Feels Like: 68 °F
Forecast: 78 / 62 °F
Wind: 5 mph from Northeast

Location: Cienfuegos - Las Villas

Current Time: Jan 20, 2019 at 8:39:17 pm

Latest Report: Jan 20, 2019 at 7:59 pm


Visibility: N/A

Pressure: 30.09 "Hg

Humidity: 83%

Dew Point: 63 °F

Location of TrinidadLocation

Past Weather in Trinidad — Graph

°F

Trinidad Temperature Yesterday

Maximum temperature yesterday: 86 °F (at 1:52 pm)
Minimum temperature yesterday: 64 °F (at 3:59 am)
Average temperature yesterday: 73 °F

High & Low Weather Summary for the Past Weeks

 TemperatureHumidityPressure
High88 °F (Jan 8, 12:50 pm)100% (Jan 6, 4:59 am)30.18 "Hg (Jan 6, 4:59 am)
Low52 °F (Jan 11, 6:59 am)43% (Jan 13, 12:50 pm)29.95 "Hg (Jan 19, 2:50 pm)
Average72 °F79%30.08 "Hg
* Reported Jan 5 6:59 pm — Jan 20 6:59 pm, Trinidad. Weather by CustomWeather, © 2019

Note: Actual official high and low records may vary slightly from our data, if they occured in-between our weather recording intervals... More about our weather records

Advertising

Trinidad Weather History for the Previous 24 Hours

Scroll right to see more
 ConditionsComfort  
Time TempWeatherWind HumidityBarometerVisibility
6:59 pm
Sun, Jan 20
72 °FMild.9 mph78%30.09 "HgN/A
5:59 pm73 °FMild.12 mph74%30.07 "HgN/A
4:59 pm75 °FMild.14 mph78%30.04 "HgN/A
3:50 pm81 °FBroken clouds.12 mph70%30.01 "Hg5 mi
2:50 pm82 °FScattered clouds.12 mph74%29.98 "Hg5 mi
1:51 pm84 °FRain. Broken clouds.21 mph70%N/A3 mi
1:27 pm82 °FRain. Broken clouds.17 mph70%29.98 "Hg4 mi
12:50 pm82 °FBroken clouds.18 mph74%30.01 "Hg5 mi
11:50 am84 °FBroken clouds.16 mph70%30.04 "HgN/A
10:50 am81 °FBroken clouds.15 mph74%30.04 "Hg6 mi
9:50 am81 °FBroken clouds.14 mph79%30.04 "Hg6 mi
8:50 am79 °FPartly sunny.9 mph79%30.01 "HgN/A
7:59 am73 °FMild.5 mph94%30.01 "HgN/A
6:59 am72 °FMild.3 mph94%30.01 "HgN/A
5:59 am72 °FMild.3 mph94%29.98 "HgN/A
4:59 am68 °FMild.7 mph100%29.95 "HgN/A
3:59 am64 °FMild.1 mph94%29.98 "HgN/A
2:59 am66 °FMild.3 mph94%29.98 "HgN/A
1:59 am64 °FMild.6 mph100%29.98 "HgN/A
12:59 am66 °FMild.6 mph94%30.01 "HgN/A
11:59 pm
Sat, Jan 19
66 °FMild.5 mph100%30.01 "HgN/A
10:59 pm66 °FMild.3 mph100%30.01 "HgN/A
9:59 pm68 °FMild.6 mph94%30.01 "HgN/A
8:59 pm72 °FMild.3 mph94%30.01 "HgN/A
Weather by CustomWeather, © 2019

See weather overview

LIVE TOTAL LUNAR ECLIPSE – Watch the eclipse as it happens